Regional Weather Roundup
Issued by NWS Little Rock, AR

Home | Current Version | Previous Version | Text Only | Print | Product List | Glossary Off
Versions: 1 2 3 4 5 6 7 8 9 10 11 12 13 14 15 16 17 18 19 20 21 22 23 24 25 26 27 28 29 30 31 32 33 34 35 36 37 38 39 40 41 42 43 44 45 46 47 48 49 50

782
ASUS44 KLZK 231505
RWRLZK

WEATHER ROUNDUP FOR ARKANSAS
NATIONAL WEATHER SERVICE LITTLE ROCK AR
900 AM CST THU FEB 23 2017

NOTE: "FAIR" INDICATES FEW OR NO CLOUDS BELOW 12,000 FEET WITH NO
SIGNIFICANT WEATHER AND/OR OBSTRUCTIONS TO VISIBILITY.

ARZ001-003-010-029-231600-
NORTHWEST ARKANSAS

CITY           SKY/WX    TMP DP  RH WIND       PRES   REMARKS
FAYETTEVILLE   MOSUNNY   64  55  72 VRB3      29.65F
FORT SMITH     MOSUNNY   59  55  87 E9        29.67F
HARRISON       MOSUNNY   60  56  86 SE14      29.70F
BENTONVILLE    MOSUNNY   61  54  77 S14       29.65F
ROGERS         MOSUNNY   60  54  80 SE13      29.65F
SILOAM SPGS    MOSUNNY   63  52  67 S13       29.63S
HIGHFILL       CLOUDY    61  56  83 S10       29.63F
SPRINGDALE     SUNNY     61  55  82 SE9       29.67F
$$

ARZ004-005-016-231600-
NORTH CENTRAL ARKANSAS

CITY           SKY/WX    TMP DP  RH WIND       PRES   REMARKS
BATESVILLE     MOSUNNY   61  55  82 SE7       29.78R
FLIPPIN        MOSUNNY   55  52  88 E5        29.70F
MTN HOME       MOSUNNY   57  55  93 S8        29.72S
$$

ARZ040-041-231600-
WEST CENTRAL ARKANSAS

CITY           SKY/WX    TMP DP  RH WIND       PRES   REMARKS
MENA           SUNNY     64  59  82 SW5       29.73F
MOUNT IDA      SUNNY     62  58  86 CALM      29.71S
$$

ARZ009-017-025-026-028-231600-
NORTHEAST ARKANSAS

CITY           SKY/WX    TMP DP  RH WIND       PRES   REMARKS
CORNING        CLOUDY    55  55 100 SE6       29.79S FOG
JONESBORO      CLOUDY    56  56 100 S8        29.79S
NEWPORT        PTSUNNY   57  57 100 S10       29.78S
WALNUT RIDGE   CLOUDY    55  54  94 S8        29.78S VSB 1/4
BLYTHEVILLE    MOSUNNY   62  59  90 S8        29.81S
NW BLYTHEVILLE MOSUNNY   63  57  82 S8        29.80S
$$

ARZ022-023-033-042-044-231600-
CENTRAL ARKANSAS

CITY           SKY/WX    TMP DP  RH WIND       PRES   REMARKS
LITTLE ROCK    MOSUNNY   55  55 100 S6        29.79S
N LITTLE ROCK    N/A     56  55  97 S5        29.79S
JACKSONVILLE   PTSUNNY   56  56 100 S3        29.78S
SEARCY         CLOUDY    55  55 100 S5        29.80S FOG
HOT SPRINGS    SUNNY     59  56  89 SE7       29.77S
RUSSELLVILLE   MOSUNNY   56  55  97 SE6       29.73F
CLINTON        FOG       55  55 100 CALM      29.77F VSB 1/2
$$

ARZ036-231600-
EAST ARKANSAS

CITY           SKY/WX    TMP DP  RH WIND       PRES   REMARKS
WEST MEMPHIS   SUNNY     63  59  87 S13       29.79S
$$

ARZ050-053-066-070-073-231600-
SOUTHWEST ARKANSAS

CITY           SKY/WX    TMP DP  RH WIND       PRES   REMARKS
ARKADELPHIA    FAIR      55  54  96 E3        29.78F
CAMDEN         SUNNY     59  55  88 S7        29.79S
TEXARKANA      SUNNY     61  54  77 S12       29.74F
EL DORADO      SUNNY     61  57  87 S6        29.80R
DE QUEEN       SUNNY     60  58  92 E8        29.72S
$$

ARZ056-057-069-231600-
SOUTHEAST ARKANSAS

CITY           SKY/WX    TMP DP  RH WIND       PRES   REMARKS
PINE BLUFF     SUNNY     59  56  89 S7        29.80R
STUTTGART      SUNNY     61  52  72 S13       29.81R
MONTICELLO     SUNNY     62  57  83 S6        29.80F

$$






USA.gov is the U.S. government's official web portal to all federal, state and local government web resources and services.